Погода в Фрунзе

Россия / Республика Крым     45°01′44″N   33°38′04″E
темп.,
°C
ветер,
м/с
пор.,
м/с
влажн.,
%
обл.,
%
осадки,
мм/ч
давл.,
гПа
погр.,
м
28 ноября, вс
вс2800:00+12ю6128537 0.0 1009279
03:00+11ю498654 0.0 1008160
06:00+11ююв4782100 0.0 1008103
09:00+13ю51276100 0.0 1008289
12:00+13ююв2380100 0.2 1007101
15:00+13в3484100 1.3 1005108
18:00+15ю9156514 0.2 1004707
21:00+13ююз101491100 0.3 1004793
29 ноября, пн
пн2900:00+12ююз7119594 0.1 1006451
03:00+13ююз8158091 0.1 1006508
06:00+14ю81572100 0.1 1004453
09:00+17ю9165095 0.2 1002488
12:00+20ююз102045100 0.1 10001756
15:00+19ююз132250100 0.3 9981275
18:00+16юз142770100 1.0 9981546
21:00+14юз121980100 1.5 9991209
30 ноября, вт
вт3000:00+11з81179100 0.1 10031047
03:00+10зюз467599 0.2 1004319
06:00+9юз348346 0.0 1004100
09:00+9ююв2383100 0.1 100474
12:00+13ююз8973100 0.8 1001919
15:00+11ююз6977100 2.8 998586
18:00+10ююз4983100 5.0 997725
21:00+2ссв111896100 10.5 999668
1 декабря, ср
ср100:00+3с51083100 2.9 1004903
03:00+3сз4874100 2.9 1009311
06:00+4зсз486921 0.0 1010206
09:00+6зюз51063100 0.1 1011338
12:00+9зюз91355100 0.4 10101859
15:00+8зюз9116198 0.7 10101350
18:00+8зюз71063100 0.2 1010590
21:00+8з7106296 0.4 1011568
2 декабря, чт
чт200:00+7зюз596656 0.1 1012231
03:00+7юз486891 0.1 1013156
06:00+7ююз597361 0.0 1013207
09:00+7ююз6127631 0.0 1015411
12:00+11юз9126631 0.0 10141144
15:00+12ююз811702 0.0 1014931
18:00+10ююз8138022 0.0 1014608
21:00+8ю7147588 0.0 1015516